Weather History for KFNT - June, 2013

Change the Weather History Date:

Monday, June 3, 2013

  Actual Average Record
Temperature  
Mean Temperature 55 °F 63 °F  
Max Temperature 68 °F 74 °F 96 °F (1934)
Min Temperature 41 °F 52 °F 35 °F (1926)
Degree Days  
Heating Degree Days 10 4  
Month to date heating degree days 15 14  
Since 1 June heating degree days 15 14  
Since 1 July heating degree days 6436 6901  
Cooling Degree Days 0 2  
Month to date cooling degree days 9 6  
Year to date cooling degree days 88 38  
Since 1 June cooling degree days 9 6  
Growing Degree Days 4 (Base 50)    
Moisture  
Dew Point 39 °F    
Average Humidity 63    
Maximum Humidity 89    
Minimum Humidity 37    
Precipitation  
Precipitation 0.00 in 0.10 in 1.67 in (2007)
Month to date precipitation 0.12 0.30  
Year to date precipitation 16.88 11.29  
Snow  
Snow 0.00 in 0.00 in 0.00 in ()
Month to date snowfall 0.0 0.0  
Since 1 June snowfall 0.0 0.0  
Since 1 July snowfall 43.8 47.4  
Snow Depth 0.00 in    
Sea Level Pressure  
Sea Level Pressure 30.06 in    
Wind  
Wind Speed 5 mph (NW)    
Max Wind Speed 15 mph    
Max Gust Speed 20 mph    
Visibility 10 miles    
Events      
T = Trace of Precipitation, MM = Missing Value Source: NWS Daily Summary

Daily Weather History Graph

Daily Weather History Graph

Search for Another Location

Airport or City:

Trip Planner

Search our weather history database for the weather conditions in past years. The results will help you decide how hot, cold, wet, or windy it might be!

Date:

Astronomy

Jun. 03, 2013 Rise Set
Actual Time 5:57 AM EDT 9:09 PM EDT
Civil Twilight 5:23 AM EDT 9:43 PM EDT
Nautical Twilight 4:38 AM EDT 10:28 PM EDT
Astronomical Twilight 3:44 AM EDT 11:22 PM EDT
Moon 3:01 AM EDT (6/3) 4:32 PM EDT (6/3)
Length of Visible Light 16h 20m
Length of Day
15h 11m
Waning Crescent, 22% of the Moon is Illuminated
Jun 3
Waning Crescent
Jun 8
New
Jun 16
First Quarter
Jun 23
Full
Jun 30
Last Quarter

Hourly Weather History & Observations

Time (EDT) Temp. Windchill Dew Point Humidity Pressure Visibility Wind Dir Wind Speed Gust Speed Precip Events Conditions
12:53 AM 50.0 °F - 39.0 °F 66% 30.04 in 10.0 mi NNW 10.4 mph - N/A   Overcast
1:53 AM 46.9 °F - 37.0 °F 68% 30.04 in 10.0 mi NNW 8.1 mph - N/A   Mostly Cloudy
2:00 AM 46.4 °F 43.5 °F 37.4 °F 71% 30.04 in 10.0 mi NNW 5.8 mph - N/A   Scattered Clouds
2:53 AM 45.0 °F 41.8 °F 37.0 °F 74% 30.04 in 10.0 mi NNW 5.8 mph - N/A   Clear
3:53 AM 43.0 °F 41.3 °F 37.9 °F 82% 30.05 in 10.0 mi WNW 3.5 mph - N/A   Clear
4:53 AM 42.1 °F 40.2 °F 37.9 °F 85% 30.05 in 10.0 mi WNW 3.5 mph - N/A   Clear
5:53 AM 41.0 °F 39.0 °F 37.0 °F 86% 30.06 in 10.0 mi West 3.5 mph - N/A   Clear
6:53 AM 43.0 °F 41.3 °F 39.0 °F 86% 30.08 in 10.0 mi WNW 3.5 mph - N/A   Clear
7:53 AM 46.9 °F - 37.9 °F 71% 30.09 in 10.0 mi NNW 5.8 mph - N/A   Clear
8:53 AM 50.0 °F - 36.0 °F 59% 30.09 in 10.0 mi NNW 4.6 mph - N/A   Clear
9:53 AM 53.1 °F - 37.0 °F 55% 30.09 in 10.0 mi NNW 4.6 mph - N/A   Clear
10:53 AM 55.9 °F - 37.9 °F 51% 30.09 in 10.0 mi Variable 4.6 mph - N/A   Clear
11:53 AM 59.0 °F - 37.9 °F 46% 30.09 in 10.0 mi Calm Calm - N/A   Clear
12:53 PM 61.0 °F - 37.9 °F 42% 30.08 in 10.0 mi Variable 6.9 mph - N/A   Clear
1:53 PM 62.1 °F - 39.9 °F 44% 30.07 in 10.0 mi West 6.9 mph - N/A   Clear
2:53 PM 64.0 °F - 39.0 °F 40% 30.05 in 10.0 mi Variable 6.9 mph - N/A   Clear
3:53 PM 64.9 °F - 41.0 °F 42% 30.04 in 10.0 mi NNW 8.1 mph - N/A   Partly Cloudy
4:53 PM 66.9 °F - 41.0 °F 39% 30.03 in 10.0 mi West 9.2 mph 18.4 mph N/A   Partly Cloudy
5:53 PM 66.9 °F - 39.9 °F 37% 30.03 in 10.0 mi WNW 10.4 mph - N/A   Partly Cloudy
6:53 PM 66.9 °F - 39.9 °F 37% 30.02 in 10.0 mi WNW 4.6 mph - N/A   Partly Cloudy
7:53 PM 66.0 °F - 41.0 °F 40% 30.03 in 10.0 mi WNW 10.4 mph - N/A   Clear
8:53 PM 63.0 °F - 42.1 °F 46% 30.04 in 10.0 mi West 3.5 mph - N/A   Clear
9:53 PM 59.0 °F - 44.1 °F 58% 30.05 in 10.0 mi Calm Calm - N/A   Clear
10:53 PM 55.9 °F - 45.0 °F 67% 30.08 in 10.0 mi West 4.6 mph - N/A   Clear
11:53 PM 55.9 °F - 43.0 °F 62% 30.10 in 10.0 mi Calm Calm - N/A   Clear